Stations météo

réclame
Mon MeteoGroup
Pescara, Italie (16230): Température de l'air & dewpoint: 18.02.2018 01:00:00 - 24.02.2018 01:00:00 (CET)Pescara, Italie (16230): Vitesse du vent: 18.02.2018 01:00:00 - 24.02.2018 01:00:00 (CET)Pescara, Italie (16230): Direction du vent: 18.02.2018 01:00:00 - 24.02.2018 01:00:00 (CET)Pescara, Italie (16230): reduced air pressure: 18.02.2018 01:00:00 - 24.02.2018 01:00:00 (CET)Pescara, Italie (16230): visibility: 18.02.2018 01:00:00 - 24.02.2018 01:00:00 (CET)Pescara, Italie (16230): Quantités de précipitations: 18.02.2018 01:00:00 - 24.02.2018 01:00:00 (CET)
Date & Time tt [°C] td [°C] ff [km/h] ff [knt] dd ppp [hPa] vv [km] rr [mm]
24.02.2018 01:00:00 - - - - - - - -
24.02.2018 00:00:00 8,0 8,0 4 2 - - 4,7 -
23.02.2018 23:00:00 8,0 8,0 4 2 - - 5 -
23.02.2018 22:00:00 7,9 7,6 0 0 - 1003,2 4,9 0,0
23.02.2018 21:00:00 8,0 8,0 5 3 SSW - 6 -
23.02.2018 20:00:00 8,0 7,0 8 4 SSW - 6 -
23.02.2018 19:00:00 7,6 7,2 8 4 SSW 1003,1 7 -
23.02.2018 18:00:00 8,0 7,0 9 5 SW - 9 -
23.02.2018 17:00:00 8,0 7,0 8 4 SW - 6 -
23.02.2018 16:00:00 8,0 7,4 8 4 SW 1002,8 4,5 0,0
23.02.2018 15:00:00 8,0 7,0 11 6 SSW - 5 -
23.02.2018 14:00:00 8,0 7,0 9 5 SW - 5 -
23.02.2018 13:00:00 7,2 6,7 5 3 SSW 1004,2 5 -
23.02.2018 12:00:00 6,0 6,0 8 4 SW - 5 -
23.02.2018 11:00:00 6,0 5,0 8 4 SW - 5 -
23.02.2018 10:00:00 5,3 4,7 5 3 SW 1004,8 7 0,0
23.02.2018 09:00:00 5,0 4,0 9 5 WSW - 10 -
23.02.2018 08:00:00 4,0 3,0 9 5 WSW - 10 -
23.02.2018 07:00:00 3,6 3,2 8 4 SW 1004,4 20 -
23.02.2018 06:00:00 3,0 3,0 8 4 SSW - 4,9 -
23.02.2018 05:00:00 3,0 3,0 4 2 - - 2,3 -
23.02.2018 04:00:00 3,8 3,5 2 1 N 1003,4 10 0,0
23.02.2018 03:00:00 5,0 4,0 4 2 WSW - 10 -
23.02.2018 02:00:00 5,0 5,0 9 5 SW - 9 -
23.02.2018 01:00:00 5,7 5,2 5 3 WSW 1004,2 8 -
23.02.2018 00:00:00 6,0 5,0 8 4 SW - 7 -
22.02.2018 23:00:00 6,0 5,0 8 4 SW - 9 -
22.02.2018 22:00:00 5,7 5,0 5 3 SW 1004,9 12 0,0
22.02.2018 21:00:00 6,0 5,0 8 4 SSW - 10 -
22.02.2018 20:00:00 6,0 5,0 9 5 SSW - 10 -
22.02.2018 19:00:00 6,3 5,3 4 2 N 1005,6 10 -
22.02.2018 18:00:00 7,0 6,0 5 3 NE - 9 -
22.02.2018 17:00:00 7,0 6,0 5 3 NNW - 9 -
22.02.2018 16:00:00 7,2 5,7 2 1 - 1005,7 8 0,0
22.02.2018 15:00:00 8,0 6,0 8 4 N - 10 -
22.02.2018 14:00:00 9,0 5,0 9 5 N - 10 -
22.02.2018 13:00:00 8,5 4,8 9 5 N 1005,4 25 -
22.02.2018 12:00:00 8,0 4,0 9 5 NNE - 10 -
22.02.2018 11:00:00 8,0 4,0 11 6 N - 10 -
22.02.2018 10:00:00 8,5 4,9 9 5 ENE 1004,5 25 0,0
22.02.2018 09:00:00 3,0 2,0 5 3 SSW - 10 -
22.02.2018 08:00:00 1,0 0,0 4 2 - - 10 -
22.02.2018 07:00:00 0,6 0,2 2 1 N 1002,6 25 -
22.02.2018 06:00:00 0,0 0,0 4 2 SSW - 10 -
22.02.2018 05:00:00 1,0 1,0 8 4 SW - 10 -
22.02.2018 04:00:00 1,2 0,1 2 1 - 1001,4 20 0,0
22.02.2018 03:00:00 3,0 2,0 11 6 SW - 10 -
22.02.2018 02:00:00 4,0 2,0 11 6 SW - 10 -
22.02.2018 01:00:00 4,8 3,3 8 4 SSW 1001,1 25 -
22.02.2018 00:00:00 7,0 3,0 9 5 WSW - 10 -
21.02.2018 23:00:00 6,0 3,0 15 8 W - 10 -
21.02.2018 22:00:00 5,8 3,2 11 6 W 1002,1 15 0,0
21.02.2018 21:00:00 6,0 4,0 11 6 WSW - 10 -
21.02.2018 20:00:00 6,0 3,0 13 7 W - 10 -
21.02.2018 19:00:00 5,6 3,0 11 6 W 1002,9 20 -
21.02.2018 18:00:00 6,0 3,0 15 8 W - 10 -
21.02.2018 17:00:00 6,0 3,0 15 8 W - 10 -
21.02.2018 16:00:00 5,8 3,5 11 6 W 1003,1 15 0,0
21.02.2018 15:00:00 6,0 4,0 9 5 NW - 10 -
21.02.2018 14:00:00 6,0 3,0 15 8 WNW - 10 -
21.02.2018 13:00:00 5,6 3,5 13 7 WNW 1004,7 9 -
21.02.2018 12:00:00 6,0 4,0 13 7 W - 10 -
21.02.2018 11:00:00 5,0 3,0 15 8 WNW - 9 -
21.02.2018 10:00:00 4,6 2,7 13 7 WNW 1005,2 20 0,0
21.02.2018 09:00:00 4,0 3,0 11 6 WNW - 10 -
21.02.2018 08:00:00 4,0 2,0 11 6 WNW - 10 -
21.02.2018 07:00:00 3,8 2,2 15 8 WNW 1004,9 12 -
21.02.2018 06:00:00 4,0 3,0 13 7 WNW - 10 -
21.02.2018 05:00:00 4,0 3,0 11 6 WNW - 10 -
21.02.2018 04:00:00 4,5 3,0 9 5 W 1004,8 10 0,0
21.02.2018 03:00:00 5,0 3,0 8 4 W - 10 -
21.02.2018 02:00:00 5,0 3,0 9 5 WSW - 10 -
21.02.2018 01:00:00 4,4 3,6 8 4 SW 1005,7 6 -
21.02.2018 00:00:00 4,0 4,0 9 5 SW - 8 -
20.02.2018 23:00:00 4,0 3,0 9 5 SW - 10 -
20.02.2018 22:00:00 4,3 3,1 8 4 WSW 1006,6 8 0,0
20.02.2018 21:00:00 5,0 3,0 9 5 WSW - 8 -
20.02.2018 20:00:00 5,0 4,0 5 3 WNW - 5 -
20.02.2018 19:00:00 5,2 3,8 4 2 NW 1007,1 4,5 -
20.02.2018 18:00:00 6,0 4,0 5 3 NNW - 8 -
20.02.2018 17:00:00 - - - - - - - -
20.02.2018 16:00:00 6,0 3,4 9 5 NNW 1007,1 7 0,0
20.02.2018 15:00:00 6,0 4,0 11 6 NNW - 7 -
20.02.2018 14:00:00 6,0 4,0 11 6 N - 7 -
20.02.2018 13:00:00 6,5 3,8 9 5 N 1008,4 8 -
20.02.2018 12:00:00 6,0 3,0 9 5 NNE - 8 -
20.02.2018 11:00:00 7,0 4,0 0 0 N - 8 -
20.02.2018 10:00:00 5,9 4,3 8 4 SW 1009,7 8 0,0
20.02.2018 09:00:00 6,0 4,0 8 4 WSW - 8 -
20.02.2018 08:00:00 5,0 4,0 8 4 WSW - 10 -
20.02.2018 07:00:00 5,0 4,1 5 3 SW 1009,8 20 -
20.02.2018 06:00:00 5,0 4,0 8 4 SW - 10 -
20.02.2018 05:00:00 5,0 4,0 8 4 SW - 10 -
20.02.2018 04:00:00 5,1 3,6 8 4 WSW 1010,5 9 0,0
20.02.2018 03:00:00 6,0 4,0 5 3 WSW - 10 -
20.02.2018 02:00:00 6,0 4,0 5 3 WSW - 10 -
20.02.2018 01:00:00 5,7 4,2 8 4 SW 1012,0 10 -
20.02.2018 00:00:00 6,0 5,0 5 3 SW - 10 -
19.02.2018 23:00:00 6,0 5,0 8 4 SW - 10 -
19.02.2018 22:00:00 6,1 4,9 5 3 SW 1012,9 15 0,0
19.02.2018 21:00:00 7,0 4,0 2 1 - - 10 -
19.02.2018 20:00:00 7,0 4,0 5 3 W - 10 -
19.02.2018 19:00:00 7,1 4,6 5 3 WNW 1013,7 11 -
19.02.2018 18:00:00 7,0 5,0 4 2 - - 10 -
19.02.2018 17:00:00 8,0 5,0 5 3 NW - 10 -
19.02.2018 16:00:00 7,9 5,0 9 5 NW 1014,0 15 0,0
19.02.2018 15:00:00 8,0 6,0 9 5 NW - 8 -
19.02.2018 14:00:00 8,0 6,0 11 6 NW - 8 -
19.02.2018 13:00:00 7,7 5,8 9 5 WNW 1015,1 8 -
19.02.2018 12:00:00 8,0 6,0 13 7 WNW - 8 -
19.02.2018 11:00:00 7,0 6,0 11 6 W - 8 -
19.02.2018 10:00:00 7,3 5,9 11 6 WNW 1015,5 8 0,0
19.02.2018 09:00:00 7,0 6,0 11 6 WNW - 8 -
19.02.2018 08:00:00 7,0 6,0 15 8 W - 6 -
19.02.2018 07:00:00 7,2 5,8 13 7 WNW 1014,6 4,0 -
19.02.2018 06:00:00 8,0 6,0 16 9 WNW - 10 -
19.02.2018 05:00:00 8,0 6,0 13 7 WNW - 10 -
19.02.2018 04:00:00 7,9 5,9 13 7 WNW 1014,4 10 0,0
19.02.2018 03:00:00 8,0 6,0 15 8 WNW - 10 -
19.02.2018 02:00:00 8,0 6,0 16 9 WNW - 10 -
19.02.2018 01:00:00 8,2 6,7 15 8 WNW 1015,3 10 -
19.02.2018 00:00:00 9,0 7,0 18 10 WNW - 10 -
18.02.2018 23:00:00 9,0 7,0 13 7 WNW - 10 -
18.02.2018 22:00:00 8,8 6,2 5 3 WSW 1015,9 10 0,0
18.02.2018 21:00:00 8,0 7,0 8 4 SW - 10 -
18.02.2018 20:00:00 8,0 7,0 5 3 SW - 8 -
18.02.2018 19:00:00 8,5 7,0 0 0 N 1016,4 8 -
18.02.2018 18:00:00 9,0 8,0 2 1 - - 8 -
18.02.2018 17:00:00 9,0 7,0 4 2 - - 9 -
18.02.2018 16:00:00 9,0 7,3 8 4 NNW 1016,0 9 0,0
18.02.2018 15:00:00 9,0 7,0 15 8 N - 9 -
18.02.2018 14:00:00 9,0 7,0 15 8 N - 8 -
18.02.2018 13:00:00 9,5 7,5 15 8 N 1016,1 3,0 -
18.02.2018 12:00:00 11,0 9,0 13 7 N - 4,0 -
18.02.2018 11:00:00 10,0 7,0 2 1 - - 5 -
18.02.2018 10:00:00 9,0 6,8 4 2 N 1016,0 4,0 0,0
18.02.2018 09:00:00 7,0 6,0 8 4 SW - 3,5 -
18.02.2018 08:00:00 7,0 6,0 8 4 WSW - 3,5 -
18.02.2018 07:00:00 5,9 5,1 5 3 SSW 1016,2 2,5 -
18.02.2018 06:00:00 6,0 5,0 4 2 WSW - 3,8 -
18.02.2018 05:00:00 6,0 5,0 4 2 SW - 4,1 -
18.02.2018 04:00:00 6,0 5,0 4 2 SSW - 2,8 -
18.02.2018 03:00:00 7,0 5,0 2 1 - - 4,9 -
18.02.2018 02:00:00 7,0 5,0 5 3 SW - 4,8 -
18.02.2018 01:00:00 7,0 5,0 4 2 SSW - 5 -

tt = Température de l'air
td = dewpoint
ff = Vitesse du vent
dd = Direction du vent
ppp = reduced air pressure
vv = visibility
rr = Quantités de précipitations

stations d'obs. à proximité